�������l�o���
Date,Time,MP-1(��Sv/h),MP-2(��Sv/h),MP-3(��Sv/h),MP-4(��Sv/h),MP-5(��Sv/h),MP-6(��Sv/h),MP-7(��Sv/h),����,����(m/s),���J
2016/08/03,00:00,0.417,0.244,0.431,0.391,0.372,0.199,0.170,��쐼,2.7,��
2016/08/03,00:10,0.414,0.246,0.433,0.395,0.366,0.200,0.172,��쐼,2.2,��
2016/08/03,00:20,0.411,0.244,0.430,0.392,0.368,0.200,0.170,�쐼,1.6,��
2016/08/03,00:30,0.417,0.243,0.430,0.391,0.370,0.199,0.170,��쐼,1.3,��
2016/08/03,00:40,0.416,0.245,0.433,0.395,0.366,0.202,0.172,��쐼,1.6,��
2016/08/03,00:50,0.412,0.243,0.430,0.394,0.366,0.201,0.171,-,CALM,��
2016/08/03,01:00,0.416,0.244,0.432,0.390,0.369,0.201,0.170,-,CALM,��
2016/08/03,01:10,0.415,0.246,0.434,0.395,0.367,0.201,0.172,-,CALM,��
2016/08/03,01:20,0.412,0.244,0.430,0.392,0.368,0.200,0.170,�k�k��,1.2,��
2016/08/03,01:30,0.417,0.245,0.430,0.393,0.370,0.202,0.170,�k,2.0,��
2016/08/03,01:40,0.416,0.247,0.433,0.396,0.367,0.202,0.172,�k�k��,2.2,��
2016/08/03,01:50,0.412,0.245,0.430,0.394,0.371,0.201,0.171,�k,1.6,��
2016/08/03,02:00,0.416,0.245,0.430,0.394,0.370,0.201,0.172,�k,1.6,��
2016/08/03,02:10,0.415,0.246,0.434,0.396,0.366,0.200,0.172,�k,3.1,��
2016/08/03,02:20,0.412,0.244,0.429,0.392,0.370,0.200,0.170,�k,2.1,��
2016/08/03,02:30,0.415,0.246,0.430,0.394,0.369,0.200,0.172,�k,2.2,��
2016/08/03,02:40,0.415,0.245,0.434,0.396,0.366,0.201,0.172,�k�k��,1.9,��
2016/08/03,02:50,0.411,0.243,0.429,0.391,0.371,0.202,0.170,�k,2.6,��
2016/08/03,03:00,0.415,0.246,0.431,0.393,0.369,0.202,0.172,�k�k��,2.7,��
2016/08/03,03:10,0.415,0.245,0.435,0.394,0.367,0.200,0.171,�k�k��,2.5,��
2016/08/03,03:20,0.412,0.245,0.429,0.392,0.371,0.201,0.171,�k,1.8,��
2016/08/03,03:30,0.417,0.246,0.431,0.395,0.367,0.201,0.172,�k,2.0,��
2016/08/03,03:40,0.415,0.243,0.432,0.395,0.370,0.201,0.171,�k,1.6,��
2016/08/03,03:50,0.415,0.246,0.430,0.392,0.370,0.202,0.171,�k,1.2,��
2016/08/03,04:00,0.417,0.245,0.431,0.395,0.365,0.201,0.171,�k�k��,1.1,��
2016/08/03,04:10,0.414,0.243,0.431,0.394,0.369,0.200,0.172,�k�k��,1.4,��
2016/08/03,04:20,0.411,0.246,0.428,0.393,0.370,0.201,0.172,�k��,0.7,��
2016/08/03,04:30,0.415,0.245,0.434,0.396,0.366,0.201,0.171,���k��,0.7,��
2016/08/03,04:40,0.414,0.244,0.433,0.393,0.370,0.202,0.171,-,CALM,��
2016/08/03,04:50,0.414,0.246,0.428,0.392,0.369,0.201,0.172,�k,0.8,��
2016/08/03,05:00,0.416,0.244,0.433,0.395,0.367,0.201,0.170,�k��,0.7,��
2016/08/03,05:10,0.413,0.245,0.432,0.392,0.370,0.202,0.172,�k,0.7,��
2016/08/03,05:20,0.414,0.246,0.428,0.395,0.368,0.200,0.172,�k�k��,1.1,��
2016/08/03,05:30,0.415,0.245,0.434,0.396,0.367,0.202,0.170,-,CALM,��
2016/08/03,05:40,0.413,0.243,0.433,0.391,0.369,0.202,0.171,�k�k��,0.8,��
2016/08/03,05:50,0.416,0.245,0.430,0.393,0.368,0.201,0.171,-,CALM,��
2016/08/03,06:00,0.416,0.244,0.435,0.395,0.367,0.202,0.171,-,CALM,��
2016/08/03,06:10,0.413,0.243,0.432,0.390,0.368,0.202,0.169,-,CALM,��
2016/08/03,06:20,0.415,0.247,0.429,0.396,0.371,0.201,0.169,-,CALM,��
2016/08/03,06:30,0.417,0.244,0.433,0.395,0.368,0.201,0.170,-,CALM,��
2016/08/03,06:40,0.415,0.243,0.429,0.391,0.366,0.202,0.171,-,CALM,��
2016/08/03,06:50,0.413,0.243,0.428,0.393,0.366,0.200,0.170,-,CALM,��
2016/08/03,07:00,0.417,0.246,0.432,0.395,0.372,0.201,0.170,-,CALM,��
2016/08/03,07:10,0.414,0.245,0.431,0.393,0.369,0.200,0.171,�쓌,0.7,��
2016/08/03,07:20,0.412,0.245,0.432,0.391,0.368,0.199,0.172,��쓌,1.3,��
2016/08/03,07:30,0.410,0.246,0.430,0.391,0.367,0.200,0.172,�쓌,1.9,��
2016/08/03,07:40,0.412,0.244,0.429,0.392,0.366,0.201,0.172,���쓌,1.7,��
2016/08/03,07:50,0.418,0.245,0.426,0.392,0.365,0.201,0.173,��,1.3,��
2016/08/03,08:00,0.418,0.245,0.428,0.392,0.370,0.201,0.172,�k��,1.2,��
2016/08/03,08:10,0.417,0.245,0.427,0.392,0.374,0.201,0.171,�k��,1.6,��
2016/08/03,08:20,0.414,0.245,0.429,0.391,0.373,0.202,0.172,���k��,1.3,��
2016/08/03,08:30,0.413,0.246,0.434,0.391,0.371,0.202,0.173,��,1.4,��
2016/08/03,08:40,0.412,0.245,0.436,0.398,0.370,0.203,0.171,�쓌,1.7,��
2016/08/03,08:50,0.411,0.244,0.431,0.398,0.368,0.203,0.172,���쓌,1.6,��
2016/08/03,09:00,0.412,0.245,0.432,0.397,0.370,0.203,0.173,��쓌,2.5,��
2016/08/03,09:10,0.413,0.245,0.430,0.394,0.368,0.202,0.173,��,2.5,��
2016/08/03,09:20,0.416,0.247,0.429,0.395,0.370,0.202,0.173,��,2.5,��
2016/08/03,09:30,0.413,0.246,0.429,0.395,0.371,0.205,0.174,��,2.6,��
2016/08/03,09:40,0.416,0.246,0.429,0.395,0.371,0.204,0.174,��,2.9,��
2016/08/03,09:50,0.415,0.246,0.429,0.394,0.370,0.204,0.174,��,3.1,��
2016/08/03,10:00,0.417,0.246,0.429,0.395,0.371,0.203,0.175,��쓌,3.6,��
2016/08/03,10:10,0.417,0.246,0.432,0.397,0.371,0.202,0.173,��쓌,3.8,��
2016/08/03,10:20,0.416,0.247,0.428,0.396,0.370,0.204,0.174,��쓌,3.6,��
2016/08/03,10:30,0.419,0.246,0.431,0.396,0.373,0.202,0.174,�쓌,3.3,��
2016/08/03,10:40,0.418,0.247,0.431,0.396,0.371,0.203,0.174,��쓌,2.8,��
2016/08/03,10:50,0.418,0.248,0.435,0.397,0.371,0.203,0.174,�쓌,2.7,��
2016/08/03,11:00,0.419,0.247,0.434,0.395,0.371,0.203,0.174,�쓌,2.2,��
2016/08/03,11:10,0.419,0.245,0.434,0.395,0.370,0.202,0.172,��쓌,1.6,�L
2016/08/03,11:20,0.418,0.244,0.433,0.394,0.370,0.204,0.172,��쓌,1.1,�L
2016/08/03,11:30,0.414,0.245,0.430,0.393,0.370,0.202,0.172,-,CALM,�L
2016/08/03,11:40,0.413,0.245,0.429,0.392,0.368,0.201,0.172,��,0.8,�L
2016/08/03,11:50,0.413,0.245,0.432,0.390,0.365,0.202,0.172,��쓌,0.8,�L
2016/08/03,12:00,0.416,0.243,0.431,0.390,0.367,0.201,0.171,���쓌,0.9,�L
2016/08/03,12:10,0.413,0.245,0.425,0.391,0.367,0.201,0.172,�쓌,4.7,�L
2016/08/03,12:20,0.406,0.241,0.418,0.384,0.363,0.199,0.171,���k��,10.3,�L
2016/08/03,12:30,0.404,0.242,0.422,0.381,0.363,0.199,0.170,��쓌,1.9,�L
2016/08/03,12:40,0.409,0.243,0.427,0.384,0.364,0.201,0.170,��쓌,2.2,�L
2016/08/03,12:50,0.413,0.243,0.424,0.389,0.367,0.201,0.171,��쓌,2.2,��
2016/08/03,13:00,0.410,0.246,0.420,0.389,0.368,0.200,0.171,��,2.4,��
2016/08/03,13:10,0.407,0.245,0.419,0.387,0.367,0.199,0.170,��,1.6,��
2016/08/03,13:20,0.405,0.243,0.422,0.385,0.365,0.199,0.168,��쓌,1.8,��
2016/08/03,13:30,0.410,0.242,0.428,0.383,0.364,0.198,0.168,��쓌,1.9,��
2016/08/03,13:40,0.412,0.240,0.426,0.384,0.364,0.198,0.168,��쓌,3.3,��
2016/08/03,13:50,0.411,0.239,0.424,0.385,0.364,0.199,0.168,��,4.7,��
2016/08/03,14:00,0.408,0.240,0.423,0.385,0.365,0.199,0.169,��,5.6,��
2016/08/03,14:10,0.407,0.240,0.420,0.386,0.365,0.199,0.169,��,5.8,��
2016/08/03,14:20,0.406,0.241,0.422,0.385,0.365,0.199,0.169,��,5.4,��
2016/08/03,14:30,0.409,0.241,0.422,0.386,0.365,0.198,0.169,��,7.5,��
2016/08/03,14:40,0.406,0.240,0.423,0.385,0.366,0.200,0.167,��,7.2,��
2016/08/03,14:50,0.406,0.242,0.423,0.387,0.367,0.200,0.169,��,8.6,��
2016/08/03,15:00,0.408,0.241,0.424,0.386,0.367,0.199,0.168,��,7.5,��
2016/08/03,15:10,0.407,0.241,0.424,0.386,0.367,0.199,0.169,��,8.0,��
2016/08/03,15:20,0.408,0.241,0.423,0.388,0.368,0.200,0.168,��,7.6,��
2016/08/03,15:30,0.408,0.241,0.423,0.386,0.366,0.199,0.168,��,8.1,��
2016/08/03,15:40,0.407,0.241,0.423,0.384,0.365,0.198,0.168,��,8.2,��
2016/08/03,15:50,0.407,0.241,0.422,0.388,0.365,0.199,0.169,��,8.4,��
2016/08/03,16:00,0.410,0.239,0.422,0.393,0.365,0.198,0.168,��,9.5,��
2016/08/03,16:10,0.416,0.240,0.426,0.391,0.364,0.198,0.168,��,8.4,��
2016/08/03,16:20,0.413,0.242,0.428,0.388,0.367,0.200,0.169,��,8.3,��
2016/08/03,16:30,0.410,0.243,0.427,0.386,0.369,0.200,0.169,��,8.7,��
2016/08/03,16:40,0.408,0.242,0.425,0.387,0.369,0.199,0.169,��,8.9,��
2016/08/03,16:50,0.406,0.241,0.421,0.393,0.366,0.198,0.168,��,8.9,��
2016/08/03,17:00,0.413,0.240,0.424,0.392,0.365,0.199,0.168,��,9.1,�L
2016/08/03,17:10,0.414,0.241,0.429,0.389,0.365,0.200,0.169,��,9.2,��
2016/08/03,17:20,0.410,0.244,0.426,0.387,0.371,0.199,0.171,��,6.9,��
2016/08/03,17:30,0.409,0.243,0.424,0.385,0.370,0.199,0.170,��,6.4,�L
2016/08/03,17:40,0.408,0.242,0.422,0.392,0.367,0.201,0.169,��쐼,6.2,��
2016/08/03,17:50,0.414,0.241,0.425,0.393,0.365,0.199,0.168,��쐼,5.9,�L
2016/08/03,18:00,0.412,0.243,0.430,0.389,0.366,0.200,0.170,��쐼,7.1,�L
2016/08/03,18:10,0.411,0.244,0.427,0.388,0.372,0.200,0.171,��쐼,6.9,�L
2016/08/03,18:20,0.407,0.243,0.424,0.388,0.370,0.201,0.169,��쐼,6.7,�L
2016/08/03,18:30,0.411,0.242,0.423,0.394,0.365,0.200,0.169,��쐼,6.1,��
2016/08/03,18:40,0.412,0.243,0.429,0.390,0.364,0.199,0.170,��쐼,5.3,�L
2016/08/03,18:50,0.412,0.245,0.430,0.389,0.372,0.201,0.171,��쐼,6.2,�L
2016/08/03,19:00,0.410,0.243,0.427,0.389,0.371,0.203,0.173,��쐼,7.5,�L
2016/08/03,19:10,0.413,0.243,0.424,0.396,0.369,0.204,0.173,��쐼,7.3,�L
2016/08/03,19:20,0.417,0.246,0.431,0.394,0.368,0.203,0.173,��쐼,7.4,�L
2016/08/03,19:30,0.416,0.247,0.434,0.391,0.374,0.205,0.175,��쐼,6.4,�L
2016/08/03,19:40,0.411,0.245,0.430,0.391,0.373,0.205,0.175,��쐼,6.4,�L
2016/08/03,19:50,0.415,0.246,0.425,0.397,0.369,0.204,0.173,��쐼,5.7,��
2016/08/03,20:00,0.418,0.247,0.429,0.394,0.371,0.203,0.174,��쐼,5.3,��
2016/08/03,20:10,0.413,0.244,0.432,0.391,0.373,0.204,0.173,��쐼,4.5,��
2016/08/03,20:20,0.411,0.244,0.427,0.392,0.370,0.203,0.172,��쐼,4.9,�L
2016/08/03,20:30,0.416,0.245,0.426,0.396,0.367,0.201,0.172,��쐼,4.9,��
2016/08/03,20:40,0.414,0.245,0.430,0.391,0.370,0.201,0.173,��쐼,5.3,��
2016/08/03,20:50,0.411,0.242,0.429,0.389,0.371,0.202,0.172,��쐼,5.9,��
2016/08/03,21:00,0.411,0.244,0.426,0.392,0.370,0.201,0.169,��쐼,5.9,��
2016/08/03,21:10,0.415,0.243,0.424,0.394,0.364,0.201,0.171,��쐼,6.4,��
2016/08/03,21:20,0.413,0.243,0.429,0.390,0.370,0.201,0.172,��쐼,7.5,��
2016/08/03,21:30,0.408,0.241,0.427,0.388,0.370,0.201,0.169,��쐼,6.6,��
2016/08/03,21:40,0.411,0.244,0.424,0.394,0.368,0.200,0.171,��쐼,5.3,��
2016/08/03,21:50,0.414,0.241,0.426,0.392,0.366,0.200,0.172,��쐼,5.5,��
2016/08/03,22:00,0.412,0.242,0.429,0.389,0.371,0.201,0.171,��쐼,5.8,��
2016/08/03,22:10,0.409,0.243,0.426,0.390,0.368,0.199,0.169,��쐼,6.7,��
2016/08/03,22:20,0.415,0.243,0.422,0.394,0.365,0.199,0.171,��쐼,6.9,��
2016/08/03,22:30,0.413,0.241,0.428,0.391,0.366,0.201,0.170,��쐼,6.4,��
2016/08/03,22:40,0.410,0.244,0.430,0.389,0.370,0.200,0.170,��쐼,5.7,��
2016/08/03,22:50,0.412,0.243,0.425,0.392,0.367,0.200,0.170,��쐼,4.3,��
2016/08/03,23:00,0.414,0.241,0.425,0.392,0.364,0.200,0.170,��쐼,3.9,��
2016/08/03,23:10,0.412,0.243,0.430,0.387,0.370,0.200,0.170,��쐼,3.9,��
2016/08/03,23:20,0.409,0.243,0.427,0.389,0.369,0.200,0.170,�쐼,5.6,��
2016/08/03,23:30,0.413,0.241,0.423,0.395,0.365,0.199,0.170,�쐼,5.2,��
2016/08/03,23:40,0.412,0.243,0.427,0.391,0.367,0.200,0.171,�쐼,5.9,��
2016/08/03,23:50,0.409,0.243,0.428,0.389,0.371,0.201,0.170,�쐼,6.4,��
